This demonstration page uses our WeatherBlox Daily Observations layout. Learn more.

Hourly Observations for April 22, 2015

Temp ( °F °C ) Dew Point ( °F °C ) Humidity (%) Winds ( mph kmh ) Pressure ( in mb ) Visibility ( mi km ) Precip ( " mm )
12:15 am 00:15 Clear 37 2.8 30 -1.1 76 76 NNE 8 13 30.06 1018 10 16.0934 0 0
12:35 am 00:35 Clear 37 3 29 -1.4 73 73 NNE 6 9 30.06 1018 10 16.0934 0 0
12:55 am 00:55 Clear 38 3.1 30 -1.3 73 73 NNE 5 7 30.06 1018 10 16.0934 0 0
1:15 am 01:15 Clear 37 2.8 30 -1.3 75 75 N 8 13 30.06 1018 10 16.0934 0 0
1:35 am 01:35 Clear 36 2 29 -1.7 77 77 Calm 30.09 1019 10 16.0934 0 0
1:55 am 01:55 Clear 35 1.5 28 -2 78 78 N 3 6 30.09 1019 10 16.0934 0 0
2:15 am 02:15 Clear 36 2.1 28 -2.1 74 74 N 6 9 30.09 1019 10 16.0934 0 0
2:35 am 02:35 Clear 33 0.8 27 -2.6 78 78 N 7 11 30.09 1019 10 16.0934 0 0
2:55 am 02:55 Clear 33 0.8 27 -3 76 76 N 3 6 30.09 1019 10 16.0934 0 0
3:15 am 03:15 Clear 34 1 26 -3.3 73 73 N 5 7 30.09 1019 10 16.0934 0 0
3:35 am 03:35 Partly Cloudy 33 0.6 26 -3.5 74 74 N 6 9 30.09 1019 10 16.0934 0 0
3:55 am 03:55 Partly Cloudy 32 0.2 24 -4.2 73 73 NNE 6 9 30.09 1019 10 16.0934 0 0
4:15 am 04:15 Partly Cloudy 31 -0.4 24 -4.2 76 76 N 6 9 30.12 1020 10 16.0934 0 0
4:35 am 04:35 Clear 30 -1 24 -4.5 77 77 N 5 7 30.15 1021 10 16.0934 0 0
4:55 am 04:55 Clear 31 -0.7 24 -4.6 75 75 NNE 6 9 30.15 1021 10 16.0934 0 0
5:15 am 05:15 Clear 30 -1.1 23 -4.8 76 76 NNE 5 7 30.15 1021 10 16.0934 0 0
5:35 am 05:35 Clear 30 -1.1 24 -4.7 77 77 Calm 30.15 1021 10 16.0934 0 0
5:55 am 05:55 Clear 30 -1.1 24 -4.6 77 77 Calm 30.15 1021 10 16.0934 0 0
6:15 am 06:15 Clear 30 -1.1 24 -4.7 77 77 Calm 30.15 1021 10 16.0934 0 0
6:35 am 06:35 Clear 28 -2 23 -4.9 81 81 Calm 30.15 1021 10 16.0934 0 0
6:55 am 06:55 Sunny 29 -1.8 23 -4.8 80 80 Calm 30.15 1021 10 16.0934 0 0
7:15 am 07:15 Sunny 28 -2 24 -4.5 83 83 NNE 5 7 30.15 1021 10 16.0934 0 0
7:35 am 07:35 Sunny 30 -1.2 24 -4.2 80 80 ENE 5 7 30.18 1022 10 16.0934 0 0
7:55 am 07:55 Sunny 32 0.2 26 -3.1 79 79 NE 3 6 30.18 1022 10 16.0934 0 0
8:15 am 08:15 Sunny 35 1.5 27 -2.8 73 73 NE 6 9 30.15 1021 10 16.0934 0 0
8:35 am 08:35 Sunny 36 2.4 26 -3.1 67 67 ENE 6 9 30.15 1021 10 16.0934 0 0
8:55 am 08:55 Partly Cloudy 37 2.8 26 -3.5 64 64 E 7 11 30.15 1021 10 16.0934 0 0
9:15 am 09:15 Partly Cloudy 39 3.8 26 -3.3 60 60 E 9 15 30.12 1020 10 16.0934 0 0
9:35 am 09:35 Sunny 40 4.3 26 -3.3 58 58 ESE 9 15 30.12 1020 10 16.0934 0 0
9:55 am 09:55 Sunny 41 4.9 26 -3.5 55 55 E 9 15 30.12 1020 10 16.0934 0 0
10:15 am 10:15 Sunny 42 5.5 25 -3.7 52 52 E 8 13 30.15 1021 10 16.0934 0 0
10:35 am 10:35 Sunny 43 6.3 26 -3.5 50 50 SE 8 13 30.15 1021 10 16.0934 0 0
10:55 am 10:55 Sunny 45 7.1 26 -3.3 48 48 SE 7 11 30.12 1020 10 16.0934 0 0
11:15 am 11:15 Sunny 45 7.4 25 -3.8 45 45 SE 7 11 30.12 1020 10 16.0934 0 0
11:35 am 11:35 Sunny 47 8.1 25 -3.8 43 43 SE 8 13 30.12 1020 10 16.0934 0 0
11:55 am 11:55 Sunny 47 8.5 24 -4.3 40 40 SSE 10 17 30.12 1020 10 16.0934 0 0
12:15 pm 12:15 Sunny 48 9.1 25 -4 40 40 S 6 9 30.12 1020 10 16.0934 0 0
12:35 pm 12:35 Partly Cloudy 49 9.5 23 -4.9 36 36 SSE 7 11 30.06 1018 10 16.0934 0 0
12:55 pm 12:55 Partly Cloudy 50 10 24 -4.6 36 36 SSE 6 9 30.06 1018 10 16.0934 0 0
1:15 pm 13:15 Partly Cloudy 51 10.8 24 -4.4 34 34 ESE 8 13 30.06 1018 10 16.0934 0 0
1:35 pm 13:35 Partly Cloudy 51 10.7 24 -4.4 35 35 SE 7 11 30.03 1017 10 16.0934 0 0
1:55 pm 13:55 Sunny 52 11.1 25 -4 35 35 S 8 13 30.03 1017 10 16.0934 0 0
2:15 pm 14:15 Sunny 53 11.4 25 -3.9 34 34 SSE 7 11 30.03 1017 10 16.0934 0 0
2:35 pm 14:35 Partly Cloudy 54 12 25 -3.9 33 33 S 10 17 30.03 1017 10 16.0934 0 0
2:55 pm 14:55 Partly Cloudy 54 12.4 25 -3.7 33 33 S 9 15 30.03 1017 10 16.0934 0 0
3:15 pm 15:15 Sunny 55 12.5 26 -3.6 33 33 SE 9 15 29.97 1015 10 16.0934 0 0
3:35 pm 15:35 Sunny 55 12.9 26 -3.4 32 32 S 10 17 29.97 1015 10 16.0934 0 0
3:55 pm 15:55 Sunny 56 13.5 27 -3 32 32 SSE 13 20 29.97 1015 10 16.0934 0 0
4:15 pm 16:15 Sunny 56 13.2 26 -3.3 32 32 SSE 10 17 29.97 1015 10 16.0934 0 0
4:35 pm 16:35 Sunny 56 13.1 26 -3.3 32 32 SSE 10 17 29.97 1015 10 16.0934 0 0
4:55 pm 16:55 Sunny 56 13.5 27 -2.7 33 33 SSE 13 20 29.94 1014 10 16.0934 0 0
5:15 pm 17:15 Sunny 57 13.7 27 -3 32 32 S 10 17 29.94 1014 10 16.0934 0 0
5:35 pm 17:35 Sunny 57 13.7 27 -2.6 32 32 S 8 13 29.94 1014 10 16.0934 0 0
5:55 pm 17:55 Sunny 57 13.7 26 -3.3 31 31 S 8 13 29.94 1014 10 16.0934 0 0
6:15 pm 18:15 Sunny 56 13.5 26 -3.1 32 32 S 7 11 29.94 1014 10 16.0934 0 0
6:35 pm 18:35 Sunny 56 13.6 26 -3.2 31 31 S 8 13 29.94 1014 10 16.0934 0 0
6:55 pm 18:55 Sunny 56 13.2 26 -3.3 32 32 SSE 6 9 29.94 1014 10 16.0934 0 0
7:15 pm 19:15 Sunny 56 13.1 27 -2.9 33 33 S 12 19 29.94 1014 10 16.0934 0 0
7:35 pm 19:35 Sunny 55 12.7 27 -2.6 35 35 SSE 9 15 29.94 1014 10 16.0934 0 0
7:55 pm 19:55 Sunny 54 12.2 28 -2.2 37 37 SSE 7 11 29.97 1015 10 16.0934 0 0
8:15 pm 20:15 Sunny 51 10.8 30 -1.3 43 43 SSE 7 11 29.97 1015 10 16.0934 0 0
8:35 pm 20:35 Clear 49 9.3 30 -1 49 49 SE 7 11 29.97 1015 10 16.0934 0 0
8:55 pm 20:55 Clear 46 7.6 31 -0.5 57 57 SE 7 11 30 1016 10 16.0934 0 0
9:15 pm 21:15 Clear 45 7.4 31 -0.7 57 57 SE 9 15 30 1016 10 16.0934 0 0
9:35 pm 21:35 Clear 43 6.2 31 -0.7 62 62 SE 8 13 30 1016 10 16.0934 0 0
9:55 pm 21:55 Clear 42 5.8 31 -0.7 63 63 SE 8 13 30.03 1017 10 16.0934 0 0
10:15 pm 22:15 Clear 42 5.6 31 -0.7 64 64 SE 9 15 30.03 1017 10 16.0934 0 0
10:35 pm 22:35 Clear 41 5.2 30 -1 65 65 SE 9 15 30.06 1018 10 16.0934 0 0
10:55 pm 22:55 Clear 43 6.2 30 -1 60 60 SE 10 17 30.03 1017 10 16.0934 0 0
11:15 pm 23:15 Clear 43 6.1 30 -1 61 61 SE 10 17 30.03 1017 10 16.0934 0 0
11:35 pm 23:35 Clear 43 6 30 -1.1 61 61 SE 10 17 30.03 1017 10 16.0934 0 0
11:55 pm 23:55 Clear 43 6 30 -1.3 60 60 SE 10 17 30.03 1017 10 16.0934 0 0

Powered by AerisWeather